Location: Modeville
(44.7910°N, 123.1331°W)
Time: 12:40:20
(UTC+00:00)

Daily predictions for brighter satellites

Satellite Brightness Start Highest point End
(mag) Time Altitude Azimuth Time Altitude Azimuth Time Altitude Azimuth
NOSS 2-2 (D) 3.6 12:00:35 14° SSW 12:03:31 54° ESE 12:07:15 10° NE
Cosmos 1825 Rocket 4.0 12:00:03 10° NNW 12:04:06 39° W 12:08:06 10° SSW
CZ-2C R/B 2.8 12:00:44 10° N 12:04:30 60° WNW 12:07:45 13° SSW
Cosmos 1745 Rocket 4.1 12:02:58 10° NNW 12:09:07 59° W 12:15:10 10° S
USA 267 3.4 12:03:02 10° ESE 12:09:34 81° NE 12:16:08 10° NW
USA 102 4.2 12:08:17 10° S 12:13:05 23° SW 12:14:16 20° WSW
Cosmos 1953 Rocket 3.9 12:10:12 10° NNW 12:14:31 47° W 12:18:47 10° SSW
CZ-4B R/B 2.7 12:11:38 10° SE 12:14:41 42° ENE 12:17:42 10° N
Landsat 5 3.6 12:13:51 10° S 12:17:41 47° W 12:21:40 10° NNW
Lacrosse 5 rocket 4.0 12:16:04 10° SSE 12:18:52 16° ESE 12:21:43 10° E
Cosmos 1300 2.9 12:15:22 10° SSW 12:19:06 54° W 12:22:52 10° N
SeaSat 1 2.8 12:16:23 10° NNE 12:21:18 65° ESE 12:26:12 10° SSW
Cosmos 2058 3.9 12:21:42 10° N 12:25:48 52° ENE 12:29:55 10° SSE
ADEOS Rocket 4.1 12:20:32 10° SSE 12:28:09 68° ENE 12:35:50 10° N
S3M 4.5 12:22:28 10° SSW 12:28:33 45° WNW 12:34:41 10° N
ERS-2 2.7 12:27:17 10° SSW 12:30:40 36° W 12:34:05 10° NNW
COSMOS 2406 4.4 12:25:25 10° NNW 12:30:56 48° ENE 12:36:24 10° SE
Cosmos 1844 4.0 12:34:14 10° SW 12:39:56 59° WNW 12:45:39 10° NNE
Cosmos 2263 Rocket 4.2 12:41:55 10° WNW 12:44:35 13° NW 12:47:14 10° N
NOSS 3-2 (A) 4.4 12:42:06 10° NW 12:49:39 78° NE 12:58:09 10° SE
